Location: *
(49.2947°N, 8.5692°E)
Time: 06:13:56
(UTC+00:00)

Daily predictions for brighter satellites

Satellite Brightness Start Highest point End
(mag) Time Altitude Azimuth Time Altitude Azimuth Time Altitude Azimuth
NOAA 11 4.4 17:46:56 10° SE 17:52:16 56° ENE 17:57:38 10° N
GEOS 3 Rocket 4.0 17:50:21 10° ESE 17:55:17 50° NE 18:00:13 10° NW
COSMOS 2428 3.3 17:51:10 10° NNW 17:56:48 64° WSW 18:02:23 10° SSE
ARGOS 4.4 17:58:52 10° ESE 18:03:02 23° ENE 18:07:12 10° N
Cosmos 2151 Rocket 4.3 18:01:08 10° SSW 18:05:29 61° WNW 18:09:52 10° N
Meteor 1-4 Rocket 3.4 18:02:50 10° N 18:06:00 29° ENE 18:09:05 10° SE
USA 186 3.1 18:05:56 10° ESE 18:08:44 24° ENE 18:11:33 10° NNE
Cosmos 2227 Rocket 2.9 18:05:23 10° SSE 18:10:12 30° ESE 18:15:02 10° NE
Cosmos 1455 Rocket 4.3 18:07:47 10° SE 18:11:12 22° E 18:14:38 10° NE
YAOGAN 6 4.1 18:09:47 10° S 18:13:18 41° W 18:16:51 10° NNW
CZ-2D R/B 3.2 18:09:41 10° SSE 18:13:29 90° WSW 18:17:20 10° NNW
Timation 2 Rocket 4.5 18:07:04 10° SW 18:13:34 68° WNW 18:19:50 10° NNE
CZ-4 R/B 3.1 18:10:43 10° SSW 18:14:20 36° W 18:18:03 10° NNW
SJ-6B 3.8 18:11:32 10° SE 18:15:06 29° ENE 18:18:39 10° N
SPOT 3 Rocket 4.2 18:10:39 10° SE 18:15:18 36° ENE 18:20:00 10° N
Cosmos 2219 3.4 18:10:15 10° S 18:15:49 53° ESE 18:21:23 10° NE
Cosmos 1371 Rocket 4.3 18:10:52 10° S 18:15:54 45° ESE 18:20:59 10° NE
Cosmos 2297 Rocket 2.7 18:15:09 10° S 18:20:17 37° ESE 18:25:26 10° NE
Cosmos 676 Rocket 4.3 18:19:55 10° NNW 18:25:04 50° ENE 18:30:06 10° SE
Cosmos 1023 Rocket 4.4 18:24:26 10° NNW 18:29:36 66° ENE 18:34:40 10° SSE
Meteor 2-17 Rocket 4.5 18:25:56 10° N 18:31:57 59° ENE 18:37:55 10° SSE
MOS 1 4.3 18:29:04 10° SSE 18:34:46 80° ENE 18:40:29 10° NNW
Lacrosse 5 rocket 1.6 18:31:26 10° SSW 18:34:47 36° SE 18:37:12 17° ENE
Okean 1 Rocket 3.5 18:31:57 10° SSW 18:36:15 65° WNW 18:40:38 10° N
In-Cosmos 22 4.1 18:30:54 10° N 18:36:17 73° ENE 18:41:46 10° SSE
Cosmos 405 Rocket 2.8 18:33:35 10° S 18:37:08 47° E 18:40:45 10° NNE
GENESIS II 4.4 18:33:16 10° NW 18:37:25 81° SW 18:40:52 14° SE
Cosmos 2341 Rocket 3.9 18:32:42 10° N 18:38:59 79° E 18:45:12 10° SSE
Cosmos 2181 Rocket 4.2 18:33:44 10° SSE 18:39:46 52° E 18:45:55 10° NNE
Cosmos 1939 Rocket 3.6 18:37:03 10° S 18:40:48 52° W 18:44:36 10° NNW
Cosmos 1190 Rocket 4.1 18:35:47 10° NNW 18:41:06 81° WSW 18:46:21 10° SSE
H-2A R/B 2.3 18:40:24 14° SE 18:44:22 45° ENE 18:49:13 10° N
Cosmos 1437 Rocket 3.1 18:42:47 10° N 18:46:26 42° ENE 18:48:19 23° SE
Cosmos 1674 3.2 18:43:21 10° N 18:46:51 37° ENE 18:48:20 26° ESE
Cosmos 614 Rocket 4.3 18:42:03 10° NNW 18:47:15 68° WSW 18:52:22 10° S
Resurs 1-3 4.3 18:47:34 23° ESE 18:49:37 35° ENE 18:53:38 10° N
Cosmos 2237 Rocket 2.7 18:44:08 10° NW 18:49:46 62° WSW 18:55:23 10° SSE
Cosmos 2333 Rocket 4.3 18:45:09 10° NW 18:49:49 26° WSW 18:54:30 10° SSW
Cosmos 1602 Rocket 4.5 18:46:26 10° N 18:50:13 28° ENE 18:51:23 25° E
Meteor 1-15 Rocket 4.2 18:44:36 10° S 18:50:24 79° E 18:56:19 10° NNE
Cosmos 2366 rocket 4.1 18:45:26 10° N 18:51:44 58° ENE 18:57:59 10° SSE
ADEOS Rocket 3.8 18:45:20 10° NNE 18:52:23 44° E 18:59:43 10° SSE
Cosmos 2218 Rocket 4.0 18:46:15 10° N 18:52:36 63° ENE 18:58:49 10° SSE
Ariane Rocket 4.2 18:53:52 10° S 18:58:41 44° W 19:03:34 10° NNW
Meteor 1-24 Rocket 3.9 18:53:05 10° N 18:58:48 57° ENE 19:03:15 18° SSE
SL-8 Rocket 3.9 18:53:51 10° N 19:00:06 81° E 19:06:15 10° SSE
Cosmos 389 Rocket 3.7 18:57:15 10° NNW 19:00:32 42° W 19:03:47 10° SSW
FREGAT/IRIS 3.5 18:57:54 10° S 19:00:36 44° W 19:03:21 10° NNW
Resurs 01 Rocket 2.2 19:02:49 30° ESE 19:04:09 38° ENE 19:08:16 10° N
CZ-2C R/B 3.5 18:59:56 10° NNE 19:04:25 79° ESE 19:08:51 10° SSW
Cosmos 1892 Rocket 4.1 19:03:43 10° NNW 19:08:07 61° W 19:12:27 10° S
Cosmos 1805 3.3 19:06:58 28° SSE 19:08:43 50° E 19:12:30 10° NNE
USA 234 4.0 19:03:09 10° ENE 19:09:26 51° NNW 19:15:44 10° W
SAR-Lupe-2 4.0 19:06:35 10° N 19:10:09 64° WNW 19:13:42 10° SSW
Cosmos 1959 Rocket 4.4 19:06:07 10° N 19:12:18 83° E 19:18:25 10° S
Cosmos 2056 Rocket 3.7 19:08:58 10° SSW 19:14:23 77° WNW 19:19:49 10° NNE
ASTEX 1 3.9 19:10:08 10° N 19:14:57 60° W 19:19:45 10° SSW
Cosmos 1420 Rocket 4.0 19:12:07 10° S 19:17:18 56° ESE 19:22:32 10° NNE
CZ-4C R/B 4.2 19:14:03 10° NW 19:19:11 25° N 19:24:41 11° ENE
KORONAS-FOTON 3.6 19:17:45 10° N 19:21:34 82° E 19:22:29 50° SSE
CZ-2C R/B 4.2 19:18:31 10° NE 19:21:05 20° ENE 19:21:05 20° ENE
SL-16 R/B 2.2 19:17:10 10° NNW 19:22:52 83° WSW 19:26:03 27° SSE
Cosmos 1140 Rocket 4.4 19:20:08 10° NNW 19:25:04 46° WSW 19:29:46 11° S
Cosmos 1624 Rocket 4.5 19:20:34 10° SW 19:25:41 61° WNW 19:30:52 10° NNE
ISS -3.8 19:23:48 10° WSW 19:26:55 76° SW 19:26:55 76° SW
ERBS 2.9 19:24:02 10° WNW 19:27:18 46° SW 19:27:32 45° SSW
RESURS DK-1 2.4 19:23:16 10° NNW 19:27:22 59° NE 19:27:47 55° E
SL-08 RB Rocket 3.6 19:26:58 39° SSE 19:28:40 76° ENE 19:33:21 10° N
SL-8 R/B 3.6 19:24:10 10° W 19:28:58 75° S 19:30:06 51° ESE
Cosmos 1741 Rocket 4.0 19:24:13 10° NNW 19:29:33 66° ENE 19:31:10 44° SE
Cosmos 1626 3.5 19:26:41 10° N 19:28:57 27° NE 19:28:57 27° NE
Cosmos 2084 Rocket 3.8 19:26:53 10° SW 19:31:19 69° NW 19:35:37 11° NE
Meteor 2-5 Rocket 4.2 19:27:35 10° NNW 19:33:21 62° W 19:39:11 10° S
Spot 2 Rocket 3.7 19:34:39 45° E 19:35:16 47° ENE 19:40:06 10° N
Cosmos 1733 4.1 19:39:10 37° NNE 19:39:10 37° NNE 19:41:39 10° NNE
Cosmos 2082 3.6 19:33:25 10° SSW 19:39:09 86° ESE 19:44:55 10° NNE
USA 186 4.0 19:36:58 12° SSW 19:39:35 26° W 19:42:31 10° NW
Meteor 1-22 Rocket 4.3 19:34:58 10° S 19:41:06 85° E 19:47:13 10° NNE
Terra 3.8 19:42:20 15° NE 19:42:20 15° NE 19:44:16 10° NNE
ARGOS 3.4 19:39:17 21° S 19:42:50 65° WSW 19:48:14 10° NNW
Cosmos 1544 Rocket 4.3 19:44:13 10° SSW 19:48:34 52° WNW 19:52:57 10° N
Cosmos 1455 Rocket 4.3 19:44:31 10° SSW 19:48:45 43° WNW 19:53:02 10° N
SL-14 R/B 3.7 19:45:45 10° N 19:48:58 54° NNE 19:48:58 54° NNE
Cosmos 2227 Rocket 2.9 19:48:27 10° SW 19:53:58 53° NW 19:59:34 10° NNE
DMSP B5D2-2 4.1 19:51:05 10° NNE 19:56:01 59° E 19:56:01 59° E
Cosmos 1934 Rocket 4.2 19:50:44 10° N 19:56:38 47° ENE 19:56:55 47° E
Cosmos 1766 4.3 19:54:23 18° SW 19:57:01 44° WNW 20:00:48 10° N
MetOp-A 4.2 19:55:16 41° S 19:57:08 74° WSW 20:02:31 10° NNW
CZ-2C R/B 3.3 19:55:55 42° S 19:57:47 75° WSW 20:03:25 10° NNW
Cosmos 2297 Rocket 3.3 19:58:52 10° SW 20:04:15 44° NW 20:09:41 10° NNE
Cosmos 1452 Rocket 3.7 20:03:19 10° SSW 20:08:33 70° WNW 20:13:49 10° NNE
Cosmos 1825 Rocket 4.4 20:09:10 10° N 20:12:10 43° N 20:12:10 43° N
Lacrosse 5 rocket 2.5 20:10:17 10° W 20:12:53 37° WNW 20:12:53 37° WNW
USA 245 4.2 20:14:12 70° E 20:14:22 70° ENE 20:19:49 10° N
Cosmos 1943 3.2 20:17:04 10° NNW 20:22:30 68° NE 20:22:30 68° NE
H-2A R/B 3.8 20:21:02 16° SW 20:24:00 27° W 20:28:18 10° NW
Cosmos 1758 Rocket 4.5 20:20:19 10° NNW 20:23:21 45° NNW 20:23:21 45° NNW
Nadezhda 3 Rocket 4.0 20:30:13 54° SSW 20:31:39 76° W 20:37:55 10° N
ADEOS Rocket 4.3 20:30:52 10° N 20:37:54 51° WNW 20:45:18 10° SW
Resurs 01 Rocket 3.3 20:40:24 27° WSW 20:40:43 27° W 20:44:31 10° NW
Meteor 1-21 Rocket 4.4 20:35:36 10° NNW 20:41:30 72° W 20:41:31 71° W
Cosmos 1605 Rocket 4.2 20:35:54 10° N 20:41:34 62° NE 20:41:34 62° NE
Cosmos 1821 Rocket 4.4 20:38:46 10° NNW 20:44:45 55° W 20:45:40 50° SW
USA 234 4.0 20:49:57 38° NE 20:51:49 47° N 20:58:02 10° WNW
ERS-1 Rocket 4.0 21:00:53 43° NNW 21:00:53 43° NNW 21:04:18 10° NNW
SPOT 5 4.2 21:05:28 38° NNW 21:05:28 38° NNW 21:08:34 10° NNW
CZ-2C R/B 3.3 20:58:02 10° N 21:02:35 55° NNW 21:02:35 55° NNW
CZ-4C R/B 3.4 21:02:57 10° NW 21:09:26 45° NE 21:09:50 45° NE
Terra 3.7 21:21:14 27° NNW 21:21:14 27° NNW 21:23:25 10° NNW
Cosmos 2082 Rocket 4.4 21:32:53 10° N 21:36:22 16° NNE 21:36:22 16° NNE
Cosmos 2263 Rocket 4.0 22:00:09 26° N 22:00:09 26° N 22:02:46 10° NNE
USA 234 4.4 22:37:17 37° NW 22:37:17 37° NW 22:40:59 10° NW
CZ-4C R/B 4.1 22:51:24 10° NW 22:54:59 34° NW 22:54:59 34° NW
Cosmos 2082 Rocket 4.3 23:16:08 10° NNW 23:18:11 22° NNW 23:18:11 22° NNW
